ONEWEB-0707, 61612

Orbit data source: Space-Track

ONEWEB-0707, 61612 is a payload satellite owned by Eut. One Web (UK) in LEO that was launched on Sun, 20 Oct 2024 UTC via an FALCON 9 launch vehicle from the Air Force Western Test Range (AFWTR). Payload-class satellites include a variety of spacecraft equipped with specific instruments for various scientific and technological missions. These include communications satellites like Starlink; space stations such as the ISS; scientific satellites like the Hubble; Earth observation satellites from companies like Planet Labs, Umbra, and HawkEye 360; GPS; miniature CubeSats for education and research; and military/defense satellites.

Loading next visibility...
Identifier
61612, 2024-188U
Orbit
LEO
Country
Flag of UKUK
Related business
Manufacturer
One Web
Mission
Operational Commercial Communications
Bus & Motor
ARROW, Unknown motor
Mass
148 kg wet, ~140 kg dry
Launch date (UTC)
2024-10-20 (2 years ago)
Launch vehicle
FALCON 9
Launch site
Air Force Western Test Range (AFWTR)
Object type
Payload
Rocket body
Debris
Shape & HBR
Trap Box + 2 Pan, 6.7 m
Radar Cross Section
3.464 m², Large (>1 m²)

Expand to show TLE details & history
Last TLE update: 16 hours ago

TLE from 16 hours ago
0 ONEWEB-0707
1 61612U 24188U   26208.00089446 -.00000434  00000-0 -12787-2 0  9998
2 61612  87.8831  28.3266 0002307  80.9449 279.1940 13.10373818 88537
Epoch: 2026-07-27T00:01Z
TLE epoch observation values (Epoch: 2026-07-27T00:01:17.281Z)
Latitude
0.00005°
Longitude
83.31385°
Altitude
1,224.321 km
Speed
7.242 km/s
True Right ascension
01h 53m 18s
True Declination
0° 00' 00"
Sunlit
Object was in daylight at epoch
Visualization orbit readout
Latitude
Unknown
Longitude
Unknown
Altitude
Unknown
Speed
Unknown
Apparent Right ascension
Unknown
Apparent Declination
Unknown
Sunlit
N/A
Visualization observer readout
Local Sidereal Time
05:05:47
Azimuth
Unknown
Elevation
Unknown
Doppler factor
Unknown
Orbital elements
Apogee altitude
1,220.586 km
Perigee altitude
1,217.08 km
Semi-major axis
7,596.97 km
Eccentricity
0.00023
Inclination
87.8831°
RAAN
28.3266°
Arg. of periapsis
80.9449°
True anomaly
279.1679°
Mean anomaly
279.194°
Eccentric anomaly
279.18095°
Mean motion
3.2778 °/min
Orbital period
109.83 mins
BSTAR
-0.0012787
Loading maneuver chart data...
Computing Atmospheric mass density...
Loading historical data...
Loading historical data...
Loading historical data...
Loading historical data...
Loading historical data...
Loading historical data...
Loading historical data...

Documentation

Showing up to 5 results
|